WP4T Weather Reports


time (UTC)temp
F
wind
direction
speed
knots
gust
knots
rain 1hr
in
rain 24hr
in
rain mn
in
humidity
%
barometer
mb
20260507191517 86 136 3.5 7.8 0.00 0.00 0.00 76 1014.9
20260507190016 87 180 0.9 5.2 0.00 0.00 0.00 74 1014.9
20260507184520 87 107 3.5 8.7 0.00 0.00 0.00 74 1014.9
20260507183007 87 133 5.2 10.4 0.00 0.00 0.00 75 1015.1
20260507181517 88 195 4.3 12.2 0.00 0.00 0.00 73 1015.3
20260507180015 89 134 3.5 12.2 0.00 0.00 0.00 74 1015.3
20260507174518 90 71 1.7 13.0 0.00 0.00 0.00 72 1015.5
20260507173030 89 121 6.1 11.3 0.00 0.00 0.00 73 1015.7
20260507171517 88 108 6.1 12.2 0.00 0.00 0.00 74 1016.0
20260507170017 89 144 2.6 13.0 0.00 0.00 0.00 74 1016.2
20260507164517 89 105 4.3 13.0 0.00 0.00 0.00 74 1016.3
20260507163026 89 113 4.3 11.3 0.00 0.00 0.00 74 1016.4
20260507161526 89 128 6.1 12.2 0.00 0.00 0.00 74 1016.7
20260507160010 89 121 4.3 16.5 0.00 0.00 0.00 74 1016.8
20260507154521 89 171 4.3 12.2 0.00 0.00 0.00 72 1016.8
20260507153020 88 118 5.2 15.6 0.00 0.00 0.00 75 1016.8
20260507151520 87 148 7.0 13.9 0.00 0.00 0.00 76 1016.8
20260507150020 87 95 5.2 13.0 0.00 0.00 0.00 77 1016.9
20260507144516 87 94 5.2 10.4 0.00 0.00 0.00 77 1016.9
20260507143016 88 113 3.5 11.3 0.00 0.00 0.00 74 1017.0
20260507141523 89 115 1.7 8.7 0.00 0.00 0.00 74 1017.1
20260507140022 87 132 4.3 8.7 0.00 0.00 0.00 76 1017.0
20260507134508 87 107 2.6 10.4 0.00 0.00 0.00 75 1017.0
20260507133022 87 69 0.9 7.0 0.00 0.00 0.00 75 1016.8
20260507131520 86 75 2.6 7.8 0.00 0.00 0.00 77 1017.0
20260507130021 86 136 1.7 7.8 0.00 0.00 0.00 78 1016.8
20260507124523 86 144 1.7 7.8 0.00 0.00 0.00 79 1016.7
20260507123011 86 23 1.7 5.2 0.00 0.00 0.00 79 1016.6
20260507121522 84 48 0.0 2.6 0.00 0.00 0.00 81 1016.4
20260507120022 82 17 0.9 2.6 0.00 0.00 0.00 84 1016.2
20260507114523 79 63 0.9 3.5 0.00 0.00 0.00 87 1016.1
20260507113023 77 34 0.0 2.6 0.00 0.00 0.00 89 1016.0
20260507111523 74 26 0.0 1.7 0.00 0.00 0.00 91 1016.1
20260507110022 73 24 0.0 1.7 0.00 0.00 0.00 91 1016.3
20260507104524 73 24 0.0 1.7 0.00 0.00 0.00 91 1016.0
20260507103026 73 24 0.9 3.5 0.00 0.00 0.00 91 1015.9
20260507101517 73 20 0.0 3.5 0.00 0.00 0.00 90 1015.7
20260507100019 73 38 0.9 2.6 0.00 0.00 0.00 91 1015.5
20260507094504 72 24 0.0 0.9 0.00 0.00 0.00 91 1015.3
20260507093009 72 26 0.0 0.9 0.00 0.00 0.00 91 1015.3
20260507091514 72 26 0.0 0.9 0.00 0.00 0.00 91 1015.3
20260507090019 73 26 0.0 1.7 0.00 0.00 0.00 91 1015.4
20260507084528 73 26 0.0 0.9 0.00 0.00 0.00 91 1015.4
20260507083007 73 25 0.0 0.9 0.00 0.00 0.00 90 1015.5
20260507081519 73 23 0.0 0.9 0.00 0.00 0.00 91 1015.4
20260507080015 73 23 0.0 1.7 0.00 0.00 0.00 91 1015.3
20260507074521 73 24 0.0 0.0 0.00 0.00 0.00 91 1015.3
20260507073022 73 23 0.0 1.7 0.00 0.00 0.00 91 1015.3
20260507071507 74 38 0.0 2.6 0.00 0.00 0.00 91 1015.5
20260507070018 74 38 0.0 0.0 0.00 0.00 0.00 91 1015.5
20260507064519 74 38 0.0 2.6 0.00 0.00 0.00 91 1015.7
20260507063020 74 42 0.0 1.7 0.00 0.00 0.00 91 1016.0
20260507061504 75 44 0.0 2.6 0.00 0.00 0.00 90 1016.1
20260507060009 75 51 0.0 1.7 0.00 0.00 0.00 90 1016.4
20260507054514 75 52 0.0 1.7 0.00 0.00 0.00 90 1016.6
20260507053020 75 52 0.0 2.6 0.00 0.00 0.00 90 1016.7
20260507051522 75 65 0.0 1.7 0.00 0.00 0.00 90 1016.9
20260507050006 75 75 0.0 0.9 0.00 0.00 0.00 90 1017.0
20260507044529 75 77 0.0 1.7 0.00 0.00 0.00 90 1017.2
20260507043016 76 74 0.0 0.9 0.00 0.00 0.00 90 1017.4
20260507041522 76 74 0.0 0.9 0.00 0.00 0.00 90 1017.6
20260507040031 76 74 0.0 0.9 0.00 0.00 0.00 90 1017.8
20260507034510 76 74 0.0 1.7 0.00 0.00 0.00 90 1017.9
20260507033014 76 78 0.0 0.9 0.00 0.00 0.00 90 1018.0
20260507031517 76 78 0.0 0.9 0.00 0.00 0.00 90 1018.2
20260507030023 77 78 0.0 0.9 0.00 0.00 0.00 90 1018.3
20260507024524 77 78 0.0 0.9 0.00 0.00 0.00 90 1018.3
20260507023010 77 78 0.0 0.9 0.00 0.00 0.00 89 1018.1
20260507021520 77 78 0.0 1.7 0.00 0.00 0.00 89 1017.9
20260507020037 78 95 0.0 0.9 0.00 0.00 0.00 89 1018.0
20260507014525 78 96 0.0 1.7 0.00 0.00 0.00 89 1017.9
20260507013029 78 99 0.0 2.6 0.00 0.00 0.00 89 1017.8
20260507011515 78 99 0.0 0.9 0.00 0.00 0.00 89 1017.6
20260507010026 78 99 0.0 0.0 0.00 0.00 0.00 89 1017.4
20260507004530 79 99 0.0 2.6 0.00 0.00 0.00 89 1017.4
20260507003028 79 99 0.0 2.6 0.00 0.00 0.00 88 1017.3
20260507001536 80 47 0.0 0.0 0.00 0.00 0.00 87 1017.1
20260507000016 80 46 0.0 0.0 0.00 0.00 0.00 87 1017.0
20260506234522 81 47 0.0 1.7 0.00 0.00 0.00 87 1016.8
20260506233026 81 30 0.0 5.2 0.00 0.00 0.00 87 1016.6
20260506231529 81 74 1.7 7.0 0.00 0.00 0.00 86 1016.4
20260506230017 82 74 1.7 7.8 0.00 0.00 0.00 85 1016.3
20260506224521 82 90 2.6 7.0 0.00 0.00 0.00 85 1016.2
20260506223022 83 140 2.6 8.7 0.00 0.00 0.00 84 1016.0
20260506221523 83 117 5.2 11.3 0.00 0.00 0.00 83 1015.9
20260506220026 84 132 6.1 11.3 0.00 0.00 0.00 81 1015.7
20260506214516 84 76 3.5 13.9 0.00 0.00 0.00 80 1015.6
20260506213019 85 150 6.1 15.6 0.00 0.00 0.00 79 1015.7
20260506211523 86 93 6.1 12.2 0.00 0.00 0.00 76 1015.5
20260506210028 86 126 5.2 12.2 0.00 0.00 0.00 76 1015.5
20260506204528 87 162 7.8 13.0 0.00 0.00 0.00 74 1015.4
20260506203020 87 132 5.2 13.9 0.00 0.00 0.00 74 1015.3
20260506201520 87 128 6.1 13.0 0.00 0.00 0.00 73 1015.3
20260506200024 87 111 6.1 13.9 0.00 0.00 0.00 72 1015.5
20260506194526 87 132 7.0 20.0 0.00 0.00 0.00 73 1015.6
20260506193016 88 143 6.1 12.2 0.00 0.00 0.00 73 1015.7